Time,TemperatureF,DewpointF,PressureIn,WindDirection,WindDirectionDegrees,WindSpeedMPH,WindSpeedGustMPH,Humidity,HourlyPrecipIn,Conditions,Clouds,dailyrainin,SolarRadiationWatts/m^2,SoftwareType,DateUTC
2013-07-31 00:00:00,65.0,44.0,-100.00,NNE,27,4.0,5.0,45,-99.99,,,0.00,0.000000,,2013-07-31 07:00:00,
2013-07-31 00:52:00,65.0,44.0,-100.00,NNE,27,4.0,5.0,45,-99.99,,,0.00,0.000000,,2013-07-31 07:52:00,
2013-07-31 01:00:00,63.0,42.0,-100.00,NNE,22,4.0,6.0,46,-99.99,,,0.00,0.000000,,2013-07-31 08:00:00,
2013-07-31 01:42:00,63.0,42.0,-100.00,NNE,22,4.0,6.0,46,-99.99,,,0.00,0.000000,,2013-07-31 08:42:00,
2013-07-31 01:53:00,63.0,42.0,-100.00,NNE,22,4.0,6.0,46,-99.99,,,0.00,0.000000,,2013-07-31 08:53:00,
2013-07-31 02:00:00,61.0,44.0,-100.00,NNE,25,4.0,7.0,52,-99.99,,,0.00,0.120000,,2013-07-31 09:00:00,
2013-07-31 02:43:00,61.0,44.0,-100.00,NNE,25,4.0,7.0,52,-99.99,,,0.00,0.120000,,2013-07-31 09:43:00,
2013-07-31 02:52:00,61.0,44.0,-100.00,NNE,25,4.0,7.0,52,-99.99,,,0.00,0.120000,,2013-07-31 09:52:00,
2013-07-31 03:00:00,60.0,43.0,-100.00,NNE,23,4.0,8.0,52,-99.99,,,0.00,0.000000,,2013-07-31 10:00:00,
2013-07-31 03:44:00,60.0,43.0,-100.00,NNE,23,4.0,8.0,52,-99.99,,,0.00,0.000000,,2013-07-31 10:44:00,
2013-07-31 03:52:00,60.0,43.0,-100.00,NNE,23,4.0,8.0,52,-99.99,,,0.00,0.000000,,2013-07-31 10:52:00,
2013-07-31 04:00:00,60.0,44.0,-100.00,NNE,17,4.0,6.0,56,-99.99,,,0.00,0.000000,,2013-07-31 11:00:00,
2013-07-31 04:43:00,60.0,44.0,-100.00,NNE,17,4.0,6.0,56,-99.99,,,0.00,0.000000,,2013-07-31 11:43:00,
2013-07-31 04:53:00,60.0,44.0,-100.00,NNE,17,4.0,6.0,56,-99.99,,,0.00,0.000000,,2013-07-31 11:53:00,
2013-07-31 05:00:00,59.0,43.0,-100.00,NNE,19,5.0,7.0,55,-99.99,,,0.00,0.120000,,2013-07-31 12:00:00,
2013-07-31 05:43:00,59.0,43.0,-100.00,NNE,19,5.0,7.0,55,-99.99,,,0.00,0.120000,,2013-07-31 12:43:00,
2013-07-31 05:53:00,59.0,43.0,-100.00,NNE,19,5.0,7.0,55,-99.99,,,0.00,0.120000,,2013-07-31 12:53:00,
2013-07-31 06:00:00,59.0,45.0,-100.00,NNE,24,4.0,8.0,58,-99.99,,,0.00,31.030001,,2013-07-31 13:00:00,
2013-07-31 06:53:00,59.0,45.0,-100.00,NNE,24,4.0,8.0,58,-99.99,,,0.00,31.030001,,2013-07-31 13:53:00,
2013-07-31 07:00:00,59.0,48.0,-100.00,NNE,28,3.0,5.0,66,-99.99,,,0.00,137.720001,,2013-07-31 14:00:00,
2013-07-31 07:43:00,59.0,48.0,-100.00,NNE,28,3.0,5.0,66,-99.99,,,0.00,137.720001,,2013-07-31 14:43:00,
2013-07-31 07:53:00,59.0,48.0,-100.00,NNE,28,3.0,5.0,66,-99.99,,,0.00,137.720001,,2013-07-31 14:53:00,
2013-07-31 08:00:00,65.0,50.0,-100.00,NE,49,3.0,4.0,57,-99.99,,,0.00,379.920013,,2013-07-31 15:00:00,
2013-07-31 08:43:00,65.0,50.0,-100.00,NE,49,3.0,4.0,57,-99.99,,,0.00,379.920013,,2013-07-31 15:43:00,
2013-07-31 08:53:00,65.0,50.0,-100.00,NE,49,3.0,4.0,57,-99.99,,,0.00,379.920013,,2013-07-31 15:53:00,
2013-07-31 09:00:00,70.0,49.0,-100.00,SE,134,2.0,4.0,47,-99.99,,,0.00,557.969971,,2013-07-31 16:00:00,
2013-07-31 09:43:00,70.0,49.0,-100.00,SE,134,2.0,4.0,47,-99.99,,,0.00,557.969971,,2013-07-31 16:43:00,
2013-07-31 09:52:00,70.0,49.0,-100.00,SE,134,2.0,4.0,47,-99.99,,,0.00,557.969971,,2013-07-31 16:52:00,
2013-07-31 10:00:00,75.0,49.0,-100.00,SSE,147,2.0,5.0,39,-99.99,,,0.00,688.840027,,2013-07-31 17:00:00,
2013-07-31 10:43:00,75.0,49.0,-100.00,SSE,147,2.0,5.0,39,-99.99,,,0.00,688.840027,,2013-07-31 17:43:00,
2013-07-31 10:53:00,75.0,49.0,-100.00,SSE,147,2.0,5.0,39,-99.99,,,0.00,688.840027,,2013-07-31 17:53:00,
2013-07-31 11:00:00,79.0,50.0,-100.00,SSW,195,2.0,5.0,36,-99.99,,,0.00,845.849976,,2013-07-31 18:00:00,
2013-07-31 11:43:00,79.0,50.0,-100.00,SSW,195,2.0,5.0,36,-99.99,,,0.00,845.849976,,2013-07-31 18:43:00,
2013-07-31 11:52:00,79.0,50.0,-100.00,SSW,195,2.0,5.0,36,-99.99,,,0.00,845.849976,,2013-07-31 18:52:00,
2013-07-31 12:53:00,81.0,54.0,-100.00,SW,226,2.0,4.0,39,-99.99,,,0.00,505.089996,,2013-07-31 19:53:00,
2013-07-31 13:00:00,86.0,54.0,-100.00,WSW,247,5.0,8.0,33,-99.99,,,0.00,940.219971,,2013-07-31 20:00:00,
2013-07-31 13:42:00,86.0,54.0,-100.00,WSW,247,5.0,8.0,33,-99.99,,,0.00,940.219971,,2013-07-31 20:42:00,
2013-07-31 13:53:00,86.0,54.0,-100.00,WSW,247,5.0,8.0,33,-99.99,,,0.00,940.219971,,2013-07-31 20:53:00,
2013-07-31 14:00:00,92.0,44.0,-100.00,WSW,246,4.0,8.0,18,-99.99,,,-99.99,815.169983,,2013-07-31 21:00:00,
2013-07-31 14:42:00,92.0,44.0,-100.00,WSW,246,4.0,8.0,18,-99.99,,,-99.99,815.169983,,2013-07-31 21:42:00,
2013-07-31 14:53:00,92.0,44.0,-100.00,WSW,246,4.0,8.0,18,-99.99,,,-99.99,815.169983,,2013-07-31 21:53:00,
2013-07-31 16:00:00,95.0,43.0,-100.00,WNW,283,2.0,10.0,16,-99.99,,,0.00,425.600006,,2013-07-31 23:00:00,
2013-07-31 16:42:00,95.0,43.0,-100.00,WNW,283,2.0,10.0,16,-99.99,,,0.00,425.600006,,2013-07-31 23:42:00,
2013-07-31 16:52:00,95.0,43.0,-100.00,WNW,283,2.0,10.0,16,-99.99,,,0.00,425.600006,,2013-07-31 23:52:00,
2013-07-31 17:00:00,91.0,42.0,-100.00,NNW,339,4.0,12.0,17,-99.99,,,0.00,208.729996,,2013-08-01 00:00:00,
2013-07-31 17:43:00,91.0,42.0,-100.00,NNW,339,4.0,12.0,17,-99.99,,,0.00,208.729996,,2013-08-01 00:43:00,
2013-07-31 17:52:00,91.0,42.0,-100.00,NNW,339,4.0,12.0,17,-99.99,,,0.00,208.729996,,2013-08-01 00:52:00,
2013-07-31 18:00:00,89.0,47.0,-100.00,North,358,2.0,6.0,24,-99.99,,,0.00,158.289993,,2013-08-01 01:00:00,
2013-07-31 18:42:00,89.0,47.0,-100.00,North,358,2.0,6.0,24,-99.99,,,0.00,158.289993,,2013-08-01 01:42:00,
2013-07-31 18:53:00,89.0,47.0,-100.00,North,358,2.0,6.0,24,-99.99,,,0.00,158.289993,,2013-08-01 01:53:00,
2013-07-31 19:00:00,87.0,45.0,-100.00,NW,311,3.0,7.0,23,-99.99,,,0.00,84.720001,,2013-08-01 02:00:00,
2013-07-31 19:43:00,87.0,45.0,-100.00,NW,311,3.0,7.0,23,-99.99,,,0.00,84.720001,,2013-08-01 02:43:00,
2013-07-31 19:52:00,87.0,45.0,-100.00,NW,311,3.0,7.0,23,-99.99,,,0.00,84.720001,,2013-08-01 02:52:00,
2013-07-31 20:00:00,82.0,49.0,-100.00,NNE,16,4.0,5.0,32,-99.99,,,0.00,15.460000,,2013-08-01 03:00:00,
2013-07-31 20:43:00,82.0,49.0,-100.00,NNE,16,4.0,5.0,32,-99.99,,,0.00,15.460000,,2013-08-01 03:43:00,
2013-07-31 20:53:00,82.0,49.0,-100.00,NNE,16,4.0,5.0,32,-99.99,,,0.00,15.460000,,2013-08-01 03:53:00,
2013-07-31 21:00:00,76.0,49.0,-100.00,NE,40,3.0,5.0,38,-99.99,,,0.00,0.120000,,2013-08-01 04:00:00,
2013-07-31 21:43:00,76.0,49.0,-100.00,NE,40,3.0,5.0,38,-99.99,,,0.00,0.120000,,2013-08-01 04:43:00,
2013-07-31 21:53:00,76.0,49.0,-100.00,NE,40,3.0,5.0,38,-99.99,,,0.00,0.120000,,2013-08-01 04:53:00,
2013-07-31 22:00:00,74.0,49.0,-100.00,North,352,2.0,3.0,40,-99.99,,,0.00,0.000000,,2013-08-01 05:00:00,
2013-07-31 22:43:00,74.0,49.0,-100.00,North,352,2.0,3.0,40,-99.99,,,0.00,0.000000,,2013-08-01 05:43:00,
2013-07-31 22:53:00,74.0,49.0,-100.00,North,352,2.0,3.0,40,-99.99,,,0.00,0.000000,,2013-08-01 05:53:00,
2013-07-31 23:00:00,71.0,50.0,-100.00,NNE,28,3.0,5.0,47,-99.99,,,0.00,0.000000,,2013-08-01 06:00:00,
2013-07-31 23:42:00,71.0,50.0,-100.00,NNE,28,3.0,5.0,47,-99.99,,,0.00,0.000000,,2013-08-01 06:42:00,
2013-07-31 23:53:00,71.0,50.0,-100.00,NNE,28,3.0,5.0,47,-99.99,,,0.00,0.000000,,2013-08-01 06:53:00,